When you browse on this site, cookies collect data to enhance your experience and personalize the content and advertising you see.
Visit our Privacy Policy to learn more. By continuing to use the site, you agree to this use of cookies and data.
  • In Germany
  • List of Countries
  • For 7 days
  • Water Temperature
  • Satellite Maps
  • Weather Map
  • Weather Widgets
  • user-avatar
    Login

    Hourly Weather Melbourne

    Today, 25 April, Thursday

    Time Temperature Precipitation Wind Pressure Humidity
    00:00 +14°C° 0 mm 2 mps 765 mmHg 87%
    01:00 +14°C° 0 mm 2 mps 765 mmHg 87%
    02:00 +13°C° 0 mm 2 mps 765 mmHg 87%
    03:00 +13°C° 0 mm 2 mps 765 mmHg 87%
    04:00 +13°C° 0 mm 1 mps 765 mmHg 87%
    05:00 +13°C° 0 mm 2 mps 765 mmHg 87%
    06:00 +12°C° 0 mm 2 mps 765 mmHg 87%
    07:00 +12°C° 0 mm 2 mps 765 mmHg 87%
    08:00 +14°C° 0 mm 2 mps 765 mmHg 80%
    09:00 +16°C° 0 mm 2 mps 765 mmHg 74%
    10:00 +18°C° 0 mm 2 mps 765 mmHg 68%
    11:00 +19°C° 0 mm 2 mps 764 mmHg 61%
    12:00 +20°C° 0 mm 3 mps 763 mmHg 55%
    13:00 +21°C° 0 mm 3 mps 763 mmHg 48%
    14:00 +22°C° 0 mm 3 mps 762 mmHg 47%
    15:00 +22°C° 0 mm 3 mps 762 mmHg 46%
    16:00 +22°C° 0 mm 3 mps 761 mmHg 45%
    17:00 +20°C° 0 mm 2 mps 761 mmHg 50%
    18:00 +19°C° 0 mm 2 mps 761 mmHg 55%
    19:00 +18°C° 0 mm 2 mps 761 mmHg 61%
    20:00 +17°C° 0 mm 3 mps 761 mmHg 62%
    21:00 +17°C° 0 mm 3 mps 761 mmHg 64%
    22:00 +15°C° 0 mm 4 mps 761 mmHg 66%
    23:00 +15°C° 0 mm 4 mps 761 mmHg 68%

    Tomorrow, 26 April, Friday

    Time Temperature Precipitation Wind Pressure Humidity
    00:00 +14°C° 0 mm 4 mps 761 mmHg 69%
    01:00 +14°C° 0 mm 4 mps 761 mmHg 71%
    02:00 +14°C° 0 mm 5 mps 760 mmHg 70%
    03:00 +14°C° 0 mm 5 mps 760 mmHg 70%
    04:00 +14°C° 0 mm 5 mps 760 mmHg 69%
    05:00 +14°C° 0.3 mm 5 mps 760 mmHg 70%
    06:00 +14°C° 0.3 mm 5 mps 760 mmHg 71%
    07:00 +14°C° 0.3 mm 6 mps 760 mmHg 73%
    08:00 +14°C° 0.2 mm 6 mps 761 mmHg 68%
    09:00 +12°C° 0.2 mm 7 mps 761 mmHg 64%
    10:00 +12°C° 0.2 mm 7 mps 762 mmHg 59%
    11:00 +12°C° 0 mm 7 mps 762 mmHg 54%
    12:00 +14°C° 0 mm 7 mps 762 mmHg 48%
    13:00 +14°C° 0 mm 7 mps 762 mmHg 42%
    14:00 +14°C° 0.1 mm 7 mps 763 mmHg 47%
    15:00 +12°C° 0.1 mm 7 mps 763 mmHg 52%
    16:00 +11°C° 0.1 mm 7 mps 763 mmHg 57%
    17:00 +11°C° 0.1 mm 6 mps 764 mmHg 56%
    18:00 +11°C° 0.1 mm 6 mps 764 mmHg 54%
    19:00 +10°C° 0.1 mm 6 mps 765 mmHg 53%
    20:00 +10°C° 0 mm 5 mps 765 mmHg 55%
    21:00 +10°C° 0 mm 5 mps 766 mmHg 57%
    22:00 +9°C° 0 mm 5 mps 766 mmHg 59%
    23:00 +10°C° 0 mm 4 mps 767 mmHg 60%

    Day after tomorrow, 27 April, Saturday

    Time Temperature Precipitation Wind Pressure Humidity
    00:00 +10°C° 0 mm 4 mps 767 mmHg 61%
    01:00 +10°C° 0 mm 3 mps 767 mmHg 61%
    02:00 +8°C° 0 mm 4 mps 767 mmHg 65%
    03:00 +8°C° 0 mm 4 mps 767 mmHg 68%
    04:00 +8°C° 0 mm 4 mps 767 mmHg 71%
    05:00 +8°C° 0 mm 4 mps 767 mmHg 71%
    06:00 +8°C° 0 mm 4 mps 768 mmHg 72%
    07:00 +9°C° 0 mm 3 mps 768 mmHg 73%
    08:00 +10°C° 0 mm 4 mps 768 mmHg 67%
    09:00 +12°C° 0 mm 4 mps 768 mmHg 62%
    10:00 +13°C° 0 mm 4 mps 769 mmHg 56%
    11:00 +14°C° 0 mm 4 mps 768 mmHg 54%
    12:00 +15°C° 0 mm 4 mps 768 mmHg 51%
    13:00 +17°C° 0 mm 4 mps 768 mmHg 49%
    14:00 +15°C° 0 mm 4 mps 767 mmHg 50%
    15:00 +15°C° 0 mm 4 mps 767 mmHg 52%
    16:00 +15°C° 0 mm 4 mps 767 mmHg 53%
    17:00 +14°C° 0 mm 4 mps 767 mmHg 57%
    18:00 +14°C° 0 mm 4 mps 767 mmHg 61%
    19:00 +13°C° 0 mm 4 mps 767 mmHg 65%
    20:00 +12°C° 0 mm 4 mps 767 mmHg 67%
    21:00 +12°C° 0 mm 4 mps 767 mmHg 70%
    22:00 +12°C° 0 mm 4 mps 767 mmHg 72%
    23:00 +11°C° 0 mm 4 mps 767 mmHg 75%

    28 April, Sunday

    Time Temperature Precipitation Wind Pressure Humidity
    00:00 +11°C° 0 mm 4 mps 767 mmHg 77%
    01:00 +11°C° 0 mm 4 mps 766 mmHg 79%
    02:00 +11°C° 0 mm 4 mps 766 mmHg 80%
    03:00 +11°C° 0 mm 4 mps 766 mmHg 81%
    04:00 +11°C° 0 mm 4 mps 766 mmHg 82%
    05:00 +11°C° 0 mm 4 mps 766 mmHg 82%
    06:00 +11°C° 0 mm 4 mps 766 mmHg 81%
    07:00 +11°C° 0 mm 4 mps 766 mmHg 81%
    08:00 +12°C° 0.1 mm 4 mps 767 mmHg 76%
    09:00 +13°C° 0.1 mm 4 mps 767 mmHg 71%
    10:00 +14°C° 0.1 mm 5 mps 767 mmHg 67%
    11:00 +15°C° 0.1 mm 5 mps 767 mmHg 65%
    12:00 +15°C° 0.1 mm 4 mps 767 mmHg 63%
    13:00 +17°C° 0.1 mm 4 mps 766 mmHg 62%
    14:00 +17°C° 0 mm 4 mps 766 mmHg 61%
    15:00 +17°C° 0 mm 4 mps 766 mmHg 61%
    16:00 +17°C° 0 mm 4 mps 766 mmHg 61%
    17:00 +16°C° 0 mm 3 mps 767 mmHg 64%
    18:00 +14°C° 0 mm 3 mps 767 mmHg 68%
    19:00 +14°C° 0 mm 3 mps 768 mmHg 71%
    20:00 +13°C° 0 mm 3 mps 768 mmHg 75%
    21:00 +13°C° 0 mm 3 mps 768 mmHg 78%
    22:00 +12°C° 0 mm 3 mps 768 mmHg 81%
    23:00 +12°C° 0 mm 3 mps 768 mmHg 83%

    29 April, Monday

    Time Temperature Precipitation Wind Pressure Humidity
    00:00 +12°C° 0 mm 2 mps 768 mmHg 85%
    01:00 +12°C° 0 mm 2 mps 768 mmHg 87%
    02:00 +12°C° 0 mm 2 mps 768 mmHg 88%
    03:00 +10°C° 0 mm 2 mps 768 mmHg 89%
    04:00 +11°C° 0 mm 1 mps 768 mmHg 90%
    05:00 +11°C° 0 mm 1 mps 768 mmHg 89%
    06:00 +11°C° 0 mm 1 mps 768 mmHg 89%
    07:00 +11°C° 0 mm 1 mps 769 mmHg 89%
    08:00 +12°C° 0 mm 1 mps 769 mmHg 82%
    09:00 +14°C° 0 mm 1 mps 769 mmHg 75%
    10:00 +16°C° 0 mm 1 mps 769 mmHg 69%
    11:00 +18°C° 0 mm 1 mps 768 mmHg 62%
    12:00 +20°C° 0 mm 1 mps 768 mmHg 55%
    13:00 +19°C° 0 mm 0 mps 767 mmHg 49%
    14:00 +21°C° 0 mm 1 mps 766 mmHg 48%
    15:00 +21°C° 0 mm 1 mps 766 mmHg 48%
    16:00 +21°C° 0 mm 1 mps 766 mmHg 48%
    17:00 +20°C° 0 mm 1 mps 766 mmHg 54%
    18:00 +19°C° 0 mm 1 mps 766 mmHg 60%
    19:00 +16°C° 0 mm 2 mps 766 mmHg 66%
    20:00 +16°C° 0 mm 2 mps 765 mmHg 66%
    21:00 +15°C° 0 mm 2 mps 765 mmHg 66%
    22:00 +15°C° 0 mm 2 mps 765 mmHg 67%
    23:00 +14°C° 0 mm 2 mps 765 mmHg 66%

    30 April, Tuesday

    Time Temperature Precipitation Wind Pressure Humidity
    00:00 +14°C° 0 mm 2 mps 764 mmHg 65%
    01:00 +14°C° 0 mm 2 mps 764 mmHg 65%
    02:00 +12°C° 0 mm 3 mps 764 mmHg 65%
    03:00 +12°C° 0 mm 3 mps 763 mmHg 66%
    04:00 +12°C° 0 mm 4 mps 763 mmHg 66%
    05:00 +12°C° 0 mm 4 mps 763 mmHg 66%
    06:00 +12°C° 0 mm 4 mps 763 mmHg 66%
    07:00 +12°C° 0 mm 5 mps 763 mmHg 66%
    08:00 +14°C° 0 mm 5 mps 762 mmHg 61%
    09:00 +15°C° 0 mm 6 mps 762 mmHg 56%
    10:00 +16°C° 0 mm 6 mps 762 mmHg 51%
    11:00 +17°C° 0 mm 6 mps 761 mmHg 46%
    12:00 +20°C° 0 mm 7 mps 760 mmHg 42%
    13:00 +21°C° 0 mm 7 mps 759 mmHg 38%
    14:00 +21°C° 0 mm 6 mps 758 mmHg 37%
    15:00 +21°C° 0 mm 6 mps 758 mmHg 37%
    16:00 +21°C° 0 mm 6 mps 758 mmHg 37%
    17:00 +21°C° 0 mm 6 mps 758 mmHg 37%
    18:00 +20°C° 0 mm 5 mps 758 mmHg 38%
    19:00 +20°C° 0 mm 5 mps 758 mmHg 39%
    20:00 +19°C° 0.3 mm 5 mps 759 mmHg 50%
    21:00 +16°C° 0.3 mm 5 mps 759 mmHg 62%
    22:00 +15°C° 0.3 mm 5 mps 760 mmHg 73%
    23:00 +14°C° 0 mm 5 mps 760 mmHg 73%
    Show more